[[{"header":{"parameterUnit":"m.s-1","parameterCategory":1,"la1":30.2991,"la2":30.254,"lo1":-89.0895,"lo2":-89.0444,"dy":0.0017,"dx":0.0017,"nx":28,"ny":28,"refTime":"2025-08-08T09:00:00:Z","depth":0,"parameterNumber":2,"parameterNumberName":"U-component_of_WINDS"},"data":[0,0,0,0,0,0,0,0,0,0,0,0,0,0,0,0,0,0,0,0,0,0,0,0,0,0,0,0,0,0,0,0,0,0,0,0,0,0,0,0,0,0,0,0,0,0,0,0,0,0,0,0,0,0,0,0,0,0,-3.0312,-3.0311,0,-3.0263,-3.0262,-3.0262,-3.0187,-3.0186,-3.0185,-3.0184,-3.0137,-3.0137,-3.0137,0,0,0,0,0,0,0,0,0,0,0,0,0,-3.0345,-3.0345,-3.0312,-3.0311,-3.031,-3.0263,-3.0262,-3.0262,-3.0188,-3.0186,-3.0184,-3.0183,-3.0137,-3.0137,-3.0137,0,0,0,0,0,0,0,0,0,0,0,0,0,-3.0317,-3.0345,-3.0312,-3.0268,-3.0263,-3.0263,-3.0262,-3.0262,-3.0188,-3.0186,-3.0184,-3.0182,-3.0137,-3.0137,-3.0137,-3.0177,0,0,-3.0137,-3.0137,0,0,0,0,0,0,0,0,-3.0319,-3.0316,-3.0275,-3.0271,-3.0266,-3.0229,-3.0257,-3.0233,-3.0189,-3.0217,-3.0184,-3.0181,-3.017,-3.0167,-3.0162,-3.0175,-3.0173,-3.0137,-3.0137,-3.0137,-3.0137,0,0,0,0,0,0,0,-3.0321,-3.0318,-3.0292,-3.0274,-3.0269,-3.0252,-3.0246,-3.0252,-3.0205,-3.0214,-3.0209,-3.0204,-3.0167,-3.0162,-3.0161,-3.0172,-3.0137,-3.0137,-3.0137,-3.0137,-3.0219,-3.0221,0,0,0,0,0,0,-3.0329,-3.032,-3.0294,-3.0291,-3.0288,-3.0253,-3.0246,-3.0243,-3.0205,-3.0197,-3.0205,-3.02,-3.0163,-3.0161,-3.0159,-3.0205,-3.0137,-3.0137,-3.0137,-3.0217,-3.022,-3.0222,0,0,0,0,0,0,-3.033,-3.0327,-3.0296,-3.0304,-3.0298,-3.0254,-3.0252,-3.0243,-3.0238,-3.0198,-3.019,-3.0209,-3.0162,-3.0159,-3.0174,-3.0203,-3.0137,-3.0137,-3.0214,-3.0218,-3.0221,-3.0298,0,0,0,0,0,0,-3.0331,-3.0328,-3.0341,-3.0305,-3.0298,-3.0311,-3.0253,-3.0244,-3.0238,-3.0231,-3.02,-3.0192,-3.016,-3.0174,-3.0174,-3.0201,-3.0137,-3.0212,-3.0216,-3.022,-3.0293,-3.0303,-3.0313,0,0,0,0,0,-3.0332,-3.0365,-3.0342,-3.034,-3.0314,-3.0312,-3.0309,-3.027,-3.0241,-3.0255,-3.023,-3.0193,-3.0199,-3.0176,-3.0175,-3.0203,-3.021,-3.0215,-3.0219,-3.0288,-3.0301,-3.0312,0,0,0,0,0,0,-3.0407,-3.0359,-3.0334,-3.0355,-3.0338,-3.03,-3.0316,-3.0284,-3.0276,-3.027,-3.0223,-3.0216,-3.0238,-3.0222,-3.0197,-3.0242,-3.0199,-3.0204,-3.0252,-3.0264,-3.0274,-3.0278,-3.0137,0,0,0,0,0,-3.0426,-3.0427,-3.0386,-3.0409,-3.0402,-3.0361,-3.0358,-3.033,-3.0311,-3.0304,-3.0279,-3.0263,-3.0261,-3.0261,-3.0257,-3.0289,-3.0283,-3.0309,-3.0319,-3.0327,-3.0332,-3.0351,-3.0363,-3.0238,-3.0238,-3.0238,0,0,-3.0465,-3.0439,-3.0443,-3.0423,-3.0407,-3.0411,-3.0355,-3.0361,-3.0364,-3.0305,-3.0318,-3.03,-3.0279,-3.0303,-3.0313,-3.0291,-3.0365,-3.0333,-3.034,-3.0341,-3.0357,-3.0369,-3.038,-3.0241,-3.0241,-3.024,0,0,-3.0539,-3.0519,-3.0537,-3.0522,-3.0497,-3.047,-3.0475,-3.0441,-3.0427,-3.0439,-3.0395,-3.0399,-3.0396,-3.0384,-3.0378,-3.0449,-3.0417,-3.0449,-3.0502,-3.0521,-3.0531,-3.054,-3.0568,-3.0578,-3.0455,-3.0455,-3.0455,0,-3.0591,-3.0594,-3.055,-3.056,-3.0554,-3.0499,-3.0519,-3.0506,-3.0483,-3.0481,-3.0456,-3.0453,-3.0435,-3.0457,-3.0475,-3.0471,-3.0477,-3.0453,-3.0533,-3.0541,-3.0548,-3.0575,-3.0585,-3.0459,-3.0459,-3.0458,-3.0458,0,-3.0661,-3.0664,-3.0682,-3.066,-3.0656,-3.067,-3.0631,-3.0632,-3.0604,-3.0581,-3.0595,-3.0572,-3.0564,-3.0566,-3.0539,-3.0586,-3.0573,-3.0541,-3.0498,-3.0565,-3.059,-3.0599,-3.0465,-3.0464,-3.0462,-3.0461,0,0,-3.0781,-3.0735,-3.0743,-3.0734,-3.0703,-3.0706,-3.0719,-3.071,-3.0714,-3.0699,-3.0711,-3.0711,-3.0682,-3.0675,-3.0646,-3.0662,-3.0724,-3.0628,-3.0627,-3.0649,-3.0777,-3.0803,-3.0816,-3.0702,-3.0703,-3.0705,-3.078,0,-3.085,-3.0869,-3.0831,-3.086,-3.0864,-3.0813,-3.0825,-3.0809,-3.0788,-3.0789,-3.0766,-3.0768,-3.0727,-3.0723,-3.0737,-3.0714,-3.075,-3.0707,-3.0715,-3.0715,-3.0723,-3.0828,-3.0854,-3.0927,-3.0789,-3.079,-3.0792,0,-3.0934,-3.0924,-3.0953,-3.0924,-3.0924,-3.0935,-3.0926,-3.0927,-3.0909,-3.0892,-3.0885,-3.0852,-3.0865,-3.0822,-3.0841,-3.0813,-3.0814,-3.0803,-3.0805,-3.0806,-3.0759,-3.0834,-3.0948,-3.096,-3.0806,-3.0804,-3.0803,0,-3.1021,-3.1015,-3.1033,-3.1026,-3.0991,-3.1001,-3.0987,-3.0967,-3.0965,-3.0957,-3.0956,-3.0949,-3.0947,-3.0944,-3.091,-3.0882,-3.0935,-3.0888,-3.0924,-3.0925,-3.0938,-3.0938,-3.1057,-3.0935,-3.0935,-3.0935,-3.0935,0,-3.1104,-3.1125,-3.1072,-3.1083,-3.1105,-3.1062,-3.1086,-3.1067,-3.105,-3.1058,-3.1014,-3.1023,-3.0977,-3.0982,-3.0955,-3.0977,-3.0975,-3.0964,-3.0958,-3.097,-3.0972,-3.0971,-3.0966,-3.0938,-3.0937,-3.0937,-3.0936,0,-3.1206,-3.1171,-3.1187,-3.1153,-3.1146,-3.1164,-3.1136,-3.1146,-3.1122,-3.1133,-3.1133,-3.1096,-3.11,-3.1065,-3.1062,-3.1045,-3.108,-3.1063,-3.1086,-3.1081,-3.112,-3.1118,-3.1244,-3.126,-3.1126,-3.1127,-3.1129,0,-3.1262,-3.1277,-3.1245,-3.1247,-3.1236,-3.1239,-3.1237,-3.1196,-3.1196,-3.1178,-3.1191,-3.119,-3.1188,-3.1196,-3.117,-3.1168,-3.1153,-3.1197,-3.1152,-3.1165,-3.1157,-3.1157,-3.116,-3.1207,-3.1209,-3.121,-3.1211,0,-3.1367,-3.1349,-3.1347,-3.134,-3.1339,-3.1332,-3.1322,-3.1326,-3.1281,-3.1284,-3.1287,-3.1285,-3.1282,-3.1284,-3.1277,-3.1265,-3.1232,-3.1225,-3.1234,-3.1248,-3.1261,-3.1257,-3.1114,-3.1223,-3.1222,-3.1221,-3.122,-3.122,-3.1449,-3.1461,-3.1441,-3.1441,-3.1429,-3.1421,-3.143,-3.1407,-3.1408,-3.1402,-3.1378,-3.1386,-3.137,-3.1358,-3.1349,-3.1356,-3.1335,-3.1346,-3.135,-3.1354,-3.1362,-3.1259,-3.1354,-3.1354,-3.1353,-3.1353,-3.1353,0,-3.1553,-3.1538,-3.1539,-3.1526,-3.1528,-3.1495,-3.1483,-3.1486,-3.1493,-3.1481,-3.1479,-3.1484,-3.1486,-3.146,-3.1459,-3.147,-3.1455,-3.1471,-3.1471,-3.147,-3.138,-3.1374,-3.1484,-3.1484,-3.1484,-3.1484,-3.1484,-3.1484,-3.1608,-3.1627,-3.1608,-3.1622,-3.1606,-3.1613,-3.161,-3.1603,-3.1593,-3.16,-3.1601,-3.1584,-3.1567,-3.1565,-3.1566,-3.1558,-3.1561,-3.1583,-3.1572,-3.1488,-3.1476,-3.1464,-3.1458,-3.1584,-3.1584,-3.1661,-3.1662,-3.1662]},{"header":{"parameterUnit":"m.s-1","parameterCategory":1,"la1":30.2991,"la2":30.254,"lo1":-89.0895,"lo2":-89.0444,"dy":0.0017,"dx":0.0017,"nx":28,"ny":28,"refTime":"2025-08-08T09:00:00:Z","depth":0,"parameterNumber":3,"parameterNumberName":"V-component_of_WINDS"},"data":[0,0,0,0,0,0,0,0,0,0,0,0,0,0,0,0,0,0,0,0,0,0,0,0,0,0,0,0,0,0,0,0,0,0,0,0,0,0,0,0,0,0,0,0,0,0,0,0,0,0,0,0,0,0,0,0,0,0,0.2144,0.2143,0,0.2046,0.2045,0.2044,0.2012,0.2013,0.2013,0.2014,0.1909,0.1906,0.1903,0,0,0,0,0,0,0,0,0,0,0,0,0,0.2299,0.2297,0.2144,0.2142,0.2141,0.2046,0.2045,0.2043,0.2012,0.2013,0.2013,0.2014,0.1911,0.1907,0.1903,0,0,0,0,0,0,0,0,0,0,0,0,0,0.222,0.2296,0.2144,0.2114,0.2111,0.2046,0.2045,0.2043,0.2012,0.2013,0.2014,0.2014,0.1912,0.1907,0.1902,0.1859,0,0,0.1888,0.1886,0,0,0,0,0,0,0,0,0.2224,0.2214,0.212,0.2116,0.2112,0.2042,0.2061,0.1981,0.2012,0.205,0.2014,0.2015,0.1953,0.1945,0.1925,0.1854,0.185,0.1887,0.1884,0.1882,0.1881,0,0,0,0,0,0,0,0.223,0.2218,0.2105,0.2119,0.2114,0.2105,0.2094,0.2046,0.1998,0.2046,0.2044,0.2033,0.1951,0.1929,0.1922,0.1848,0.1887,0.1883,0.188,0.1878,0.1736,0.1735,0,0,0,0,0,0,0.2241,0.2223,0.2108,0.2102,0.2171,0.2101,0.209,0.2064,0.1999,0.199,0.2032,0.2032,0.1937,0.1928,0.1918,0.1862,0.1882,0.1878,0.1875,0.1737,0.1736,0.1735,0,0,0,0,0,0,0.2244,0.2231,0.2112,0.2162,0.2146,0.2098,0.2069,0.2062,0.204,0.1988,0.1979,0.202,0.1937,0.1925,0.1874,0.1858,0.1876,0.1871,0.1738,0.1736,0.1735,0.175,0,0,0,0,0,0,0.2249,0.2232,0.2216,0.2162,0.2143,0.207,0.2068,0.2059,0.2032,0.2031,0.1974,0.1965,0.1937,0.1881,0.1869,0.1851,0.1868,0.1739,0.1737,0.1735,0.175,0.1749,0.1748,0,0,0,0,0,0.2255,0.2224,0.2216,0.2202,0.2122,0.207,0.2059,0.2028,0.2031,0.2014,0.1981,0.1967,0.1862,0.1876,0.1862,0.1843,0.174,0.1738,0.1736,0.1751,0.1749,0.1748,0,0,0,0,0,0,0.2276,0.2216,0.2206,0.2157,0.2119,0.2065,0.2042,0.2028,0.1987,0.1987,0.195,0.1937,0.1888,0.1861,0.1878,0.1797,0.18,0.1795,0.1817,0.1814,0.1813,0.182,0.1864,0,0,0,0,0,0.2275,0.2239,0.2188,0.2149,0.2131,0.209,0.2065,0.2046,0.2004,0.1987,0.195,0.1909,0.1867,0.1839,0.1798,0.1747,0.1733,0.1727,0.1726,0.1725,0.172,0.169,0.1686,0.1728,0.1728,0.1728,0,0,0.2273,0.2235,0.2214,0.2152,0.212,0.2082,0.2076,0.2036,0.2006,0.198,0.193,0.1902,0.1853,0.1802,0.1778,0.1777,0.1706,0.1722,0.1722,0.1718,0.1687,0.1683,0.168,0.1726,0.1727,0.1727,0,0,0.2248,0.2217,0.218,0.2149,0.2101,0.2074,0.2066,0.2014,0.1994,0.1944,0.1923,0.1887,0.1816,0.1782,0.1755,0.1719,0.1703,0.1706,0.1698,0.1669,0.1666,0.1663,0.1648,0.1643,0.1702,0.1702,0.1702,0,0.225,0.2192,0.2163,0.2124,0.2096,0.2074,0.2035,0.2006,0.1947,0.1928,0.1929,0.1839,0.1805,0.1744,0.1736,0.1716,0.1703,0.1711,0.1669,0.1666,0.1662,0.1647,0.1642,0.1703,0.1703,0.1703,0.1703,0,0.2196,0.2157,0.2133,0.2078,0.2048,0.201,0.1973,0.1947,0.193,0.1903,0.185,0.1809,0.1758,0.1743,0.1726,0.168,0.1681,0.1677,0.1678,0.1659,0.1644,0.1639,0.1703,0.1703,0.1703,0.1703,0,0,0.218,0.211,0.2101,0.2076,0.2022,0.199,0.1951,0.1902,0.1879,0.184,0.1804,0.1744,0.174,0.171,0.1688,0.1663,0.1635,0.1661,0.1659,0.1656,0.158,0.1582,0.1576,0.1626,0.1625,0.1624,0.1583,0,0.2146,0.2075,0.2048,0.199,0.1952,0.193,0.1895,0.1858,0.1832,0.1795,0.1765,0.1723,0.1721,0.1703,0.1677,0.1644,0.1618,0.1647,0.159,0.1588,0.16,0.1568,0.157,0.1534,0.1577,0.1576,0.1576,0,0.2097,0.2058,0.1996,0.1947,0.193,0.1899,0.1852,0.1818,0.1775,0.1758,0.1725,0.1705,0.1661,0.1668,0.1606,0.1626,0.1602,0.1582,0.158,0.1571,0.1579,0.1556,0.1522,0.1515,0.1567,0.1567,0.1568,0,0.2088,0.2021,0.1974,0.1953,0.1895,0.1874,0.1848,0.1806,0.1779,0.1738,0.1719,0.1674,0.1648,0.1612,0.1581,0.1589,0.1521,0.1525,0.1503,0.1504,0.1487,0.1488,0.1445,0.1476,0.1476,0.1476,0.1476,0,0.2052,0.2014,0.197,0.1941,0.1898,0.1867,0.1825,0.1798,0.1761,0.1725,0.1704,0.1671,0.1633,0.1594,0.1569,0.152,0.151,0.1493,0.1486,0.1493,0.1495,0.1474,0.1475,0.1475,0.1475,0.1475,0.1476,0,0.2034,0.2003,0.1951,0.1901,0.1887,0.1857,0.1814,0.1784,0.1758,0.1713,0.1701,0.1659,0.1613,0.1579,0.1518,0.1502,0.1449,0.1443,0.1464,0.146,0.1438,0.144,0.1379,0.1368,0.1409,0.1408,0.1408,0,0.2012,0.1982,0.1929,0.1905,0.188,0.1841,0.1813,0.1782,0.1754,0.1703,0.1679,0.1632,0.1592,0.1519,0.1482,0.1436,0.1427,0.1409,0.142,0.1427,0.1423,0.1425,0.142,0.1406,0.1406,0.1406,0.1406,0,0.1974,0.1961,0.1922,0.1878,0.1846,0.1809,0.1773,0.1753,0.1716,0.1685,0.1638,0.1607,0.1547,0.1499,0.1449,0.1422,0.1406,0.1403,0.1395,0.14,0.1412,0.1403,0.1457,0.1404,0.1404,0.1404,0.1404,0.1404,0.1951,0.1924,0.1882,0.184,0.1809,0.1776,0.1745,0.1716,0.1677,0.1626,0.161,0.1561,0.1518,0.145,0.1422,0.1382,0.1382,0.1371,0.1367,0.1364,0.1364,0.1422,0.1373,0.1373,0.1373,0.1373,0.1373,0,0.1911,0.1884,0.1845,0.1795,0.1761,0.1753,0.1711,0.1683,0.1641,0.1603,0.1565,0.1511,0.1465,0.1425,0.1377,0.1353,0.1344,0.1341,0.1341,0.1334,0.1368,0.1378,0.1348,0.1348,0.1348,0.1348,0.1348,0.1348,0.1885,0.1838,0.1819,0.1756,0.1729,0.1682,0.1659,0.1627,0.1596,0.1537,0.1499,0.1475,0.1435,0.1384,0.1341,0.1331,0.1313,0.131,0.1298,0.1329,0.1332,0.1335,0.1344,0.1308,0.1307,0.1267,0.1267,0.1266]}]]